Abelea, Mexico

7:22 PM CST on February 17, 2018 (GMT -0600)
Gen Leobardo C Ruiz International | | Change Station

Elev 7021 ft 22.90 °N, 102.68 °W | Updated 35 minutes ago

Partly Cloudy
Partly Cloudy
68 °F
Feels Like 68 °F
N
0
Wind Variable Wind from North

Today
High -- | Low -- °F
--% Chance of Precip.
Yesterday
High -- | Low -- °F
Precip. -- in
Pressure 30.25 in
Visibility 10.0 miles
Clouds Few 4000 ft
Few 20000 ft
Dew Point 34 °F
Humidity 28%
Rainfall 0.00 in
Snow Depth Not available.
7:19 AM 6:47 PM
Waxing Crescent, 5% visible
METAR MMZC 180047Z 00000KT 10SM FEW040 FEW200 20/01 A3025 RMK 8/402 DSNT CB S
Pressure 30.25 in
Visibility 10.0 miles
Clouds Few 4000 ft
Few 20000 ft
Dew Point 34 °F
Humidity 28%
Rainfall 0.00 in
Snow Depth Not available.
7:19 AM 6:47 PM
Waxing Crescent, 5% visible
METAR MMZC 180047Z 00000KT 10SM FEW040 FEW200 20/01 A3025 RMK 8/402 DSNT CB S

Get Severe Weather Alerts

Thanks for signing up!

Be on the lookout for a verification email in your inbox.

You'll start receiving the daily forecast at 6 AM.

×

10-Day Weather Forecast

No radar image for this location.
×

Almanac

Astronomy

Feb. 17, 2018 Rise Set
Actual Time
Civil Twilight
Nautical Twilight
Astronomical Twilight
Moon
Length of Visible Light
Length of Day
Tomorrow will be .
, % of the Moon is Illuminated

Today's Extremes

Country Highs Country Lows

Community

WunderPhotos

Category 6

Welcome to Category 6. This is the collective home for Weather Underground's featured writeups by Dr. Jeff Masters (right), Bob Henson (left), Chris Burt, and other regular contributors.

Nearby

Air Quality

  Air Quality AQ Index Pollutant
Not available.

Snow Depth

Station Depth Elevation

Earthquake Activity

City Distance Mag. Time & Date
Minimum magnitude displayed is 2.5.

Coastal Water Temperatures

Place Temperature

Stations

Nearby Weather Stations

Station Location Temp. Windchill Dew Point Humidity Wind Precip. Elev Updated Type